sat.trackr.live / text

‹ back to catalog

PEXT (BARD)

NORAD 64874 · 2025-154F

PAYLOAD ACTIVE UNKNOWN

§ Identity

Operator
Country
US
Launch date
2025-07-23
Launch site
AFWTR
Launch vehicle
Mass (kg)
RCS (m²)

External: N2YO · Heavens-Above · Gunter

§ Orbital elements

Epoch: 2026-09-21T21:36:51.997248Z

Period
94.68 min
Inclination
97.3868°
Eccentricity
0.0001671
Mean motion
15.20928758 rev/d
Perigee alt
501.9 km
Apogee alt
504.2 km
Semi-major
6,881.2 km
B*
8.2618e-5
RAAN
328.0741°
Arg perigee
340.5962°
Mean anomaly
19.5209°
Rev number
6,454

§ Raw data

PEXT (BARD)1 64874U 25154F   26264.90060182  .00001760  00000+0  82618-4 0  99942 64874  97.3868 328.0741 0001671 340.5962  19.5209 15.20928758 64543

JSON: /api/v1/satellites/64874 · /tle

For live sub-satellite position, see the globe view (requires WebGL).

§ Visibility from observer

Set your observer location to see the next 7 days of passes ≥ 10°. The values pass through the URL so the page stays shareable.

No JS? Fill the form by hand. The geolocation button needs JavaScript.

§ Radio — SatNOGS DB

ModeDescriptionDownlinkUplink
FM S-band telemetry 2.235 GHz
FM S-band telemetry 2.257 GHz

2 transmitters · refreshed weekly from db.satnogs.org